星链-6219 (STARLINK-6219 )

导读

STARLINK-6219是美国太空探索技术公司(SpaceX)星链互联网卫星星座中的一颗卫星,于2023年6月12日发射入轨,属于星链项目第二批组网卫星,主要为全球范围内用户提供低延迟、高速率的卫星互联网接入服务,推进星链星座全球覆盖的组网进程。

Basic Information
目录编号:
56892
目录名称:
STARLINK-6219
国际标识:
2023-083S
轨道中心:
EARTH
卫星名称:
星链-6219
卫星全名:
星链-6219 (STARLINK-6219 )
卫星状态:
在轨 (已飞行1098 天)
发射日期:
2023-06-12 UTC
国别 :
美国 (US)
星等 :
--
Orbit Information
数据来源 国际轨道数据 AOE轨道数据
星历时间 2026-06-14T07:46:59+0800
22小时前
查看轨道信息
2026-06-13T16:00:00+0800
1天前
查看轨道信息
半长轴 6861.19km 6861.182km
偏心率 0.0001495 0.0001325
轨道倾角 43.007° 43.003°
近地点辐角 286.436° 271.077°
升交点赤经 265.156° 268.872°
平近点角 73.632° 68.258°
近地点 482.027km 482.135km
远地点 484.079km 483.955km
周期 94.267分钟 94.267分钟
每日圈数 15.27579 15.275814
Detailed Information
固有亮度:
5
最大亮度:
2.4
卫星平台:
Starlink v1.5
覆盖范围:
全球
运营商:
太空探索技术公司
运营商所在国:
美国
制造商(研发单位):
太空探索技术公司
制造商所在国:
美国
使用方式:
暂无
Satellite Introduction
星链(Starlink)计划是由太空探索技术公司(SpaceX)提出的一个巨型低轨卫星互联网星座项目,计划在2019年至2024年间在太空搭建由约1.2万颗卫星组成的“星链”网络,其中1584颗将部署在地球上空550千米处的近地轨道,并从2020年开始工作。该卫星仍在工作。
2D Orbit Map
3D Orbit Map
Orbit Altitude Analysis Chart
Orbit Inclination Analysis Chart
Orbit Comprehensive Analysis Chart
View Comprehensive Chart